ODIN

导读 | 星芒AI

ODIN(Odin Space Telescope for Infrared Exploration)是一颗由欧洲主导、加拿大参与的红外空间望远镜任务,旨在研究早期宇宙中的星系形成与演化。该卫星专注于观测远红外和亚毫米波段,以探测隐藏在尘埃中的恒星形成区域和遥远星系。ODIN 计划利用先进的探测器和高灵敏度仪器,提供对宇宙结构形成过程的新见解。该项目预计将显著提升我们对宇宙历史的理解。

基本信息
目录编号:
26702
目录名称:
ODIN
国际标识:
2001-007A
轨道中心:
EARTH
卫星名称:
ODIN
卫星全名:
--
卫星状态:
在轨 (已飞行9062 天)
发射日期:
2001-02-20 UTC
国别 :
瑞典 (SE)
星等 :
--
轨道信息
数据来源 国际轨道数据
星历时间: 2025-12-13T08:44:08+0800
9小时前
查看轨道信息
半长轴: 6790.979km
偏心率: 0.0005065
轨道倾角: 97.423°
近地点辐角 107.271°
升交点赤经 14.964°
平近点角 252.910°
近地点: 409.404km
远地点: 416.284km
周期: 92.824分钟
每日圈数: 15.513301
详细信息
使用方式:
暂无
2D轨道图
3D轨道图
轨道高度分析图
轨道倾角分析图
轨道综合分析图
查看轨道综合分析图